Flag for U.S.A. Weather past 2 weeks in Sedona, Arizona, U.S.A.

Now
57 °F

Clear.


Feels Like: 57 °F
Forecast: 52 / 75 °F
Wind: 5 mph from Northeast

Location: Sedona Airport

Current Time: Oct 1, 2014 at 1:49:23 AM

Latest Report: Oct 1, 2014 at 1:15 AM


Visibility: 10 mi

Pressure: 29.95 "Hg

Humidity: 55%

Dew point: 41 °F

Location of SedonaLocation

Historic Weather in Sedona — Graph

°F

Sedona temperature yesterday

Maximum temperature yesterday: 77 °F (at 1:35 PM)
Minimum temperature yesterday: 54 °F (at 2:15 AM)
Average temperature yesterday: 64 °F

Past Weeks' High & Low Weather Summary

 TemperatureHumidityPressure
High91 °F (Sep 24, 1:55 PM)94% (Sep 17, 6:15 PM)30.25 "Hg (Sep 17, 6:15 PM)
Low54 °F (Sep 29, 6:15 AM)18% (Sep 23, 3:35 PM)29.85 "Hg (Sep 27, 2:35 PM)
Average71 °F50%30.08 "Hg
* Reported Sep 16 12:15 AM — Oct 1 12:35 AM, Sedona, Weather by CustomWeather, © 2014

Note: Actual official high and low records may vary slightly from our data, if they occured in-between our weather recording intervals... More about our weather records

Advertising

Sedona weather history for previous 24 hours

 ConditionsComfort  
Time TempWeatherWind HumidityBarometerVisibility
12:35 AM
Oct 1
59 °FClear.8 mph51%29.95 "Hg10 mi
12:15 AM59 °FClear.6 mph51%29.96 "Hg10 mi
11:55 PM
Sep 30
59 °FClear.5 mph51%29.95 "Hg10 mi
11:35 PM59 °FClear.5 mph51%29.96 "Hg10 mi
11:15 PM61 °FClear.5 mph48%29.95 "Hg10 mi
10:55 PM61 °FClear.5 mph48%29.96 "Hg10 mi
10:35 PM61 °FClear.5 mph48%29.96 "Hg10 mi
10:15 PM63 °FClear.No wind45%29.96 "Hg10 mi
9:55 PM63 °FClear.No wind42%29.96 "Hg10 mi
9:35 PM63 °FClear.3 mph45%29.97 "Hg10 mi
9:15 PM63 °FClear.3 mph45%29.97 "Hg10 mi
8:55 PM64 °FClear.3 mph40%29.97 "Hg10 mi
8:35 PM64 °FClear.No wind40%29.97 "Hg10 mi
8:15 PM64 °FClear.3 mph40%29.96 "Hg10 mi
7:55 PM64 °FClear.7 mph40%29.96 "Hg10 mi
7:35 PM66 °FClear.8 mph35%29.95 "Hg10 mi
7:15 PM68 °FClear.6 mph33%29.95 "Hg10 mi
6:55 PM68 °FClear.7 mph33%29.94 "Hg10 mi
6:15 PM70 °FClear.8 mph29%29.94 "Hg10 mi
5:55 PM72 °FSunny.7 mph27%29.94 "Hg10 mi
5:35 PM73 °FSunny.5 mph23%29.93 "Hg10 mi
5:15 PM73 °FSunny.No wind25%29.94 "Hg10 mi
4:55 PM73 °FSunny.5 mph23%29.94 "Hg10 mi
4:35 PM75 °FSunny.7 mph24%29.94 "Hg10 mi
4:15 PM77 °FSunny.No wind21%29.94 "Hg10 mi
3:55 PM75 °FSunny.7 mph24%29.95 "Hg10 mi
3:35 PM77 °FSunny.7 mph22%29.95 "Hg10 mi
3:15 PM77 °FSunny.5 mph22%29.95 "Hg10 mi
2:55 PM77 °FSunny.5 mph22%29.97 "Hg10 mi
2:35 PM75 °FSunny.6 mph24%29.97 "Hg10 mi
2:15 PM77 °FSunny.6 mph22%29.98 "Hg10 mi
1:55 PM77 °FSunny.7 mph22%29.98 "Hg10 mi
1:35 PM77 °FSunny.5 mph22%29.99 "Hg10 mi
1:15 PM73 °FSunny.6 mph25%30.00 "Hg10 mi
12:55 PM73 °FSunny.6 mph25%30.02 "Hg10 mi
12:35 PM73 °FSunny.7 mph25%30.02 "Hg10 mi
12:15 PM73 °FSunny.6 mph25%30.02 "Hg10 mi
11:55 AM72 °FSunny.3 mph25%30.03 "Hg10 mi
11:35 AM72 °FSunny.5 mph27%30.03 "Hg10 mi
11:15 AM72 °FSunny.6 mph29%30.04 "Hg10 mi
10:55 AM72 °FSunny.7 mph27%30.04 "Hg10 mi
10:35 AM70 °FSunny.5 mph31%30.04 "Hg10 mi
10:15 AM70 °FSunny.6 mph31%30.04 "Hg10 mi
9:55 AM68 °FSunny.6 mph35%30.05 "Hg10 mi
9:15 AM64 °FSunny.3 mph40%30.05 "Hg10 mi
8:55 AM63 °FSunny.No wind42%30.05 "Hg10 mi
8:35 AM61 °FSunny.3 mph42%30.05 "Hg10 mi
8:15 AM61 °FSunny.6 mph42%30.05 "Hg10 mi
7:55 AM59 °FSunny.6 mph45%30.05 "Hg10 mi
7:35 AM55 °FSunny.9 mph47%30.04 "Hg10 mi
7:15 AM54 °FSunny.9 mph51%30.04 "Hg10 mi
6:55 AM54 °FSunny.7 mph51%30.04 "Hg10 mi
6:35 AM54 °FSunny.7 mph51%30.03 "Hg10 mi
6:15 AM54 °FClear.8 mph51%30.03 "Hg10 mi
5:55 AM54 °FClear.9 mph51%30.03 "Hg10 mi
5:35 AM54 °FClear.9 mph51%30.03 "Hg10 mi
5:15 AM54 °FClear.9 mph51%30.03 "Hg10 mi
4:55 AM54 °FClear.8 mph51%30.03 "Hg10 mi
4:15 AM55 °FClear.10 mph47%30.03 "Hg10 mi
3:55 AM55 °FClear.13 mph47%30.03 "Hg10 mi
3:35 AM55 °FClear.12 mph47%30.03 "Hg10 mi
3:15 AM55 °FClear.14 mph47%30.03 "Hg10 mi
2:55 AM54 °FClear.14 mph51%30.04 "Hg10 mi
2:35 AM55 °FClear.15 mph47%30.04 "Hg10 mi
2:15 AM54 °FClear.14 mph51%30.04 "Hg10 mi
1:55 AM55 °FClear.12 mph47%30.04 "Hg10 mi
1:35 AM55 °FClear.12 mph47%30.04 "Hg10 mi
1:15 AM55 °FClear.12 mph47%30.04 "Hg10 mi
Weather by CustomWeather, © 2014

See weather overviewHow to use our weather pages